Powrót do katalogu

STARLINK-6368

AktywnyŁącznośćVLEO
NORAD 57234·PAYLOAD·🇺🇸 United States

Wystrzelony Jul 7, 2023 z Vandenberg Space Force Base

Loading…

Następne Przeloty (najbliższe 24 godziny)

TLE

ŚwieżeSource: CelesTrak SupGP

Epoka: Sep 14, 2026, 22:13 UTC

1 57234C 23094S   26257.92618056  .00034782  00000+0  12600-2 0  2579
2 57234  43.0018  41.6849 0001896 273.8068 332.2425 15.27554387    18

Śledź STARLINK-6368 w czasie rzeczywistym z AllMySat

Download on the App Store